DELTA 1 DEB

Satellite information

Favourite Embed

Satellite Type and Status

DEBRISIN ORBIT

Key statistics

Satellite DELTA 1 DEB at a glance.

Uptime

18988

Days in orbit

Revolutions

≈ 12.8

Per day

Orbit

SSO

Sun Synchronous Orbit

Inclination

101.8

Latest

Satellite identification and parameters

Extended collection of information and parameters for DELTA 1 DEB.

Object identification

Identified? True

Debris? True

Object name: DELTA 1 DEB

International designator: 1973-086GP

Object number (NORAD): 14470

Object ID (CCSDS): 14470

Country: UNITED STATES OF AMERICA (US)

Current information (Y/N): Y

RCS size: SMALL

Orbital parameters

Period: 112.15 minutes

Inclination: 101.7667 deg

SMA: 7703.579 km

Apoapsis: 1418.852 km

Periapsis: 1232.037 km

RAAN: 190.6803 deg

Eccentricy: 0.0121252

Argument of periapsis: 306.5722 deg

Mean anomaly: 78.526 deg

Mean motion: 12.83996785 rev/day

Mean motion (dot): 0.00000056 rev/day2

B* drag term: 0.00042859 1/REarth

Two-line elements (TLE)

Creation date: Oct. 31, 2025, 6:26 p.m.

Reference frame: TEME

Reference center: EARTH

Epoch: Oct. 31, 2025, 4:07 p.m. UTC

TLE line 0: 0 DELTA 1 DEB

TLE line 1: 1 14470U 73086GP 25304.67181933 .00000056 00000-0 42859-3 0 9994

TLE line 2: 2 14470 101.7667 190.6803 0121252 306.5722 78.5260 12.83996785 2133

Live tracking on map

Real-time ground track for satellite DELTA 1 DEB.

In-orbit conjunctions

A list of the most updated potential collisions computed for object DELTA 1 DEB.

Target Orbit TCA Probability of collision Miss distance Type
COSMOS 2095 LEO 2025-06-14 10:44:12 0.0007415868 319.0 (m) PAYLOAD

Associated space launch

Meteorological satellite using radiometric imaging

DELTA 1 DEB was lifted into orbit during the mission ‘Delta 0300 | NOAA 3’, on board a Delta 0300 space rocket.

The launch took place on Nov. 6, 1973, 5:02 p.m. from Space Launch Complex 2W.

For more information about the launch, click the button.

Launch to space Delta 0300 | NOAA 3
Delta 0300 | NOAA 3

Agency: N/A

Status: Launch Successful

Launch date: Nov. 6, 1973, 5:02 p.m. UTC

Rocket: Delta 0300

Launch pad: Space Launch Complex 2W

Location: Vandenberg SFB, CA, USA

...

Latest news about this satellite

There are no fresh news available about this satellite. Check back as we update our databases every day.


Newsletter sign-up

Weekly statistics, charts and insights to help you stay on top of the space industry.